GEFSCGP_500_meanwind_102.txt.gz
Wind_Speed
15 20 23 26 28 30 31 32 35 39 42 44 46 49 50 51 53 53 54 54 54 53 53 52 53 53 52 50 49 48 47 45 44 43 42 41 40 39 39 38 37 37 37 37
13 17 20 23 26 29 28 30 32 35 38 41 44 46 49 50 51 52 53 54 53 53 53 53 52 52 52 51 50 49 48 46 45 45 45 44 43 41 41 40 40 40 40 39
10 15 18 20 23 26 27 27 30 32 34 37 41 45 48 48 50 51 52 52 53 53 52 52 53 52 52 51 50 49 48 48 47 46 45 45 45 44 43 42 42 41 42 42
9 12 16 18 21 24 25 26 27 30 33 34 38 41 44 46 47 49 50 51 51 52 52 53 53 53 53 52 51 50 49 49 48 47 46 46 46 45 44 44 44 44 44 44
7 11 15 18 20 22 22 25 26 28 31 32 34 38 40 43 46 47 48 50 51 52 52 52 52 53 53 53 53 51 51 50 49 48 47 47 46 46 46 46 46 46 46 46
6 9 12 15 19 20 20 23 24 26 29 31 32 35 36 39 42 44 46 48 49 51 51 51 52 52 51 52 52 53 52 51 50 50 49 49 48 48 48 48 48 48 48 48
4 6 9 12 16 19 19 21 22 24 27 28 29 32 33 34 38 41 43 46 47 49 51 51 51 51 51 51 52 52 53 53 52 52 51 51 51 51 50 50 51 50 50 51
2 5 7 10 14 17 18 19 20 22 24 25 26 29 30 31 35 38 40 43 45 47 48 48 49 49 49 50 51 52 53 53 53 53 52 52 53 53 53 53 53 53 53 53
2 2 5 8 12 15 16 17 18 19 20 22 24 26 28 30 32 34 37 39 42 44 45 46 46 47 48 48 49 50 51 52 53 53 54 53 54 53 52 53 54 54 54 54
3 1 2 6 9 12 14 16 17 17 18 19 21 22 24 27 29 30 33 36 39 41 42 43 44 44 45 46 47 49 50 51 51 51 52 53 53 52 52 52 52 53 53 52
4 2 1 4 7 9 11 13 15 16 17 18 19 21 23 25 27 28 30 32 35 38 39 41 42 42 43 44 45 46 47 48 50 50 51 52 53 53 52 51 52 52 52 51
4 2 2 3 5 7 9 10 12 14 16 16 18 19 20 23 26 27 28 30 32 34 36 37 39 40 41 41 42 43 44 45 46 47 48 49 49 50 50 50 50 49 50 50
4 3 2 1 3 6 7 9 10 12 14 16 18 18 19 21 24 25 26 28 30 33 34 35 36 36 37 39 40 41 41 42 42 43 44 45 46 46 47 47 48 48 48 48
5 3 3 3 4 6 7 8 9 11 13 15 17 17 19 21 23 24 26 27 28 30 31 32 33 34 35 36 37 38 39 40 41 41 42 43 44 44 45 46 46 46 47 47
5 4 4 4 5 7 7 8 10 12 14 15 16 18 19 21 23 24 26 27 27 28 29 30 31 32 33 34 35 36 37 37 38 39 40 41 42 43 43 44 45 45 45 45
7 6 7 6 7 8 8 10 12 12 14 15 16 17 17 20 22 23 24 26 27 29 29 30 31 31 33 34 34 35 36 37 37 38 38 39 40 41 42 43 43 43 43 43
8 9 10 9 10 11 11 11 12 13 13 15 15 16 17 19 21 22 23 24 26 28 29 30 31 31 32 33 34 35 35 36 36 37 37 37 38 39 40 40 41 42 42 42
10 11 12 12 12 12 12 12 13 14 14 15 15 16 17 18 19 21 22 23 25 26 28 29 30 31 32 32 33 34 34 35 35 36 36 37 37 38 38 39 39 40 41 41
12 13 14 14 14 14 13 14 15 15 15 16 16 17 16 17 18 19 20 22 23 25 27 28 29 30 31 32 33 33 34 34 35 36 36 36 37 37 38 38 39 40 40 41
14 15 16 17 17 17 15 16 16 17 16 16 17 17 17 18 19 19 20 22 23 24 26 27 28 29 30 30 31 32 33 34 34 35 35 36 36 37 37 38 38 38 39 39
16 17 17 18 19 19 19 19 18 18 18 18 18 18 18 19 20 21 22 23 24 24 25 26 27 28 29 30 31 31 32 33 33 34 34 35 35 36 36 36 36 36 36 37
17 18 18 20 20 20 20 20 20 20 20 19 19 19 20 20 20 21 22 23 24 25 25 26 26 27 28 29 29 30 31 31 32 33 33 34 34 34 34 35 35 35 35 35
18 19 20 20 21 21 21 21 22 22 22 22 21 21 21 22 22 22 22 23 24 24 24 24 25 26 26 27 28 29 29 30 30 31 31 32 32 33 33 33 34 33 33 33
19 20 20 21 22 22 22 22 22 22 23 23 23 23 23 23 24 24 23 23 24 24 25 25 25 25 25 26 26 27 28 28 29 29 29 30 30 31 31 31 31 31 31 31
21 21 22 23 23 23 23 23 23 22 23 23 23 23 23 24 24 24 25 25 25 24 25 25 26 26 26 26 26 27 27 27 28 28 28 29 30 30 30 30 30 30 30 30
22 24 24 24 25 25 24 24 24 24 23 23 24 24 24 24 24 25 25 25 25 25 25 26 26 26 27 27 27 27 27 27 28 28 29 29 29 30 30 30 29 29 29 29

GEFSCGP_500_meanwind_108.txt.gz
Wind_Speed
4 6 11 16 19 22 26 30 31 32 35 38 40 40 43 49 47 47 49 48 48 48 48 48 47 47 47 47 46 44 45 44 43 42 41 40 39 38 37 36 35 35 34 33
4 5 9 14 17 18 22 27 29 29 32 34 39 40 41 45 46 45 47 49 48 48 47 47 48 49 48 46 47 46 45 46 47 46 44 42 41 40 38 38 37 37 36 36
4 5 9 12 15 17 20 23 26 27 29 31 34 38 39 41 45 46 46 47 47 47 46 46 47 47 48 49 48 47 46 46 46 46 45 44 43 42 41 40 40 39 37 37
3 5 9 11 13 16 18 22 24 25 26 28 31 34 38 40 41 44 45 46 47 47 47 46 47 47 48 48 49 49 48 48 47 47 47 46 45 44 43 42 42 40 40 39
4 4 8 11 13 15 17 20 22 24 26 26 27 31 33 37 40 42 45 45 45 46 47 48 48 48 48 49 49 50 50 49 48 48 47 46 45 44 43 43 42 41 41 41
7 5 6 9 11 13 15 17 19 22 24 25 25 28 29 32 35 38 41 44 44 44 45 47 48 49 48 49 50 50 51 50 49 49 48 47 46 45 44 44 44 43 43 43
9 6 6 7 9 11 13 14 15 18 21 22 23 25 26 29 32 35 37 40 43 45 46 47 48 49 50 49 50 50 50 51 51 50 49 49 48 48 47 46 45 45 45 45
9 7 7 7 8 9 11 12 13 14 16 18 20 21 22 25 29 31 34 37 39 41 44 46 48 49 50 50 50 51 51 50 51 50 50 49 50 49 49 49 48 48 48 48
11 9 7 6 7 9 9 10 10 11 13 15 18 19 19 21 27 31 33 35 37 40 41 44 47 48 50 51 51 51 52 52 52 52 52 51 51 51 51 51 51 50 49 49
10 9 7 5 6 7 8 8 9 10 11 12 14 17 18 18 22 27 32 35 36 39 41 43 46 47 48 49 51 51 51 51 51 52 53 53 53 53 52 51 52 52 52 51
10 8 6 5 5 6 6 8 8 9 11 12 13 16 18 19 20 23 28 32 34 37 39 42 45 46 47 48 49 51 51 51 51 51 51 52 53 53 52 52 52 52 52 52
9 8 6 4 3 4 5 5 6 7 9 11 12 13 16 19 21 21 24 27 30 33 36 39 42 44 46 47 48 48 50 51 51 50 50 50 50 51 51 51 52 52 51 51
8 7 5 3 2 1 1 2 4 6 8 10 12 13 16 19 22 23 24 26 28 30 33 36 38 41 43 45 46 47 48 48 49 49 49 49 49 49 50 50 50 50 49 50
5 6 5 2 1 0 2 4 6 7 7 9 12 14 16 19 21 22 24 26 28 30 33 35 36 38 39 41 43 44 44 45 46 47 46 47 47 47 47 48 48 48 48 48
4 4 4 2 2 2 3 5 6 8 9 10 12 14 15 17 19 21 23 25 27 28 30 32 35 36 37 38 40 42 42 42 43 43 44 44 44 45 45 45 46 46 46 46
4 4 4 4 5 5 6 7 8 9 11 13 13 14 16 16 17 19 21 23 26 28 30 32 33 35 36 36 38 39 40 41 41 42 42 42 42 43 43 43 44 44 44 44
5 5 6 6 7 7 8 9 10 11 12 14 15 16 18 18 18 18 20 22 25 27 28 29 31 33 34 35 37 38 39 40 40 40 41 41 42 42 42 43 43 43 43 43
7 8 8 8 9 9 10 11 12 13 14 15 15 16 17 18 18 19 20 22 24 26 27 27 29 31 32 34 36 37 39 40 40 39 39 40 41 42 42 42 42 42 42 42
10 10 10 10 10 11 11 13 14 15 15 16 17 18 19 19 19 19 20 22 23 25 26 27 29 32 32 33 35 36 37 39 40 40 40 40 41 41 41 41 41 41 42 42
11 12 12 13 13 14 14 16 17 18 18 19 19 19 20 20 21 20 20 21 23 25 26 27 29 30 32 32 34 35 35 37 38 39 39 39 40 40 40 40 40 40 40 41
12 13 14 15 16 16 17 17 18 19 20 20 21 21 21 21 22 22 22 22 23 24 26 27 28 29 30 31 32 33 34 35 36 37 38 38 38 38 39 38 38 39 39 40
13 15 16 17 17 18 19 20 20 21 22 22 22 22 22 22 23 23 24 24 24 25 26 27 28 29 30 30 31 32 33 33 34 35 36 37 37 37 38 38 38 39 39 39
14 16 17 18 18 19 20 21 22 23 24 24 24 24 24 24 24 24 25 25 26 26 26 27 28 28 29 29 30 30 31 33 33 34 35 35 36 36 37 37 38 38 38 38
15 17 18 18 19 21 21 23 24 25 26 26 26 25 25 25 25 26 26 27 27 27 27 27 27 28 29 29 29 30 30 31 32 33 34 34 35 35 36 36 36 36 36 36
18 19 19 19 20 21 22 24 25 27 27 28 27 27 27 26 26 27 28 28 28 28 28 28 27 28 29 29 29 29 30 31 31 32 32 33 33 33 34 34 35 36 36 35
21 21 22 22 23 23 24 26 27 28 29 29 29 29 28 28 28 29 29 29 28 28 27 28 28 28 29 29 29 29 30 30 31 31 32 32 32 32 33 33 34 34 34 34

GEFSCGP_500_meanwind_114.txt.gz
Wind_Speed
5 2 2 6 7 8 12 17 21 23 28 29 29 31 35 39 42 45 45 48 51 51 51 50 48 49 47 47 46 46 46 45 43 42 42 42 41 40 39 39 38 37 36 36
6 3 1 3 6 7 12 16 19 20 24 26 27 29 32 35 40 43 44 44 48 49 48 49 48 48 47 46 45 44 45 45 45 44 45 44 43 43 42 42 41 40 39 39
7 4 0 3 5 6 10 14 18 20 21 23 25 26 30 33 37 40 42 42 45 47 47 48 48 47 46 45 45 44 44 44 45 44 45 46 46 45 45 45 44 42 42 40
7 5 2 2 5 6 8 12 15 18 19 21 23 24 27 31 35 37 39 41 43 45 45 46 47 47 46 46 45 45 45 45 46 46 45 46 46 46 45 45 45 44 43 42
7 5 3 4 5 6 7 10 13 16 17 19 21 22 25 29 33 35 36 39 41 42 43 43 45 45 45 45 45 45 45 45 46 47 46 47 47 46 46 46 46 45 45 44
7 5 4 4 5 6 7 9 11 12 14 17 18 19 23 26 29 33 36 38 40 40 41 42 43 43 43 44 44 44 45 43 44 45 47 47 48 48 47 46 45 44 43 43
9 7 5 5 5 6 7 7 8 9 11 13 15 16 18 23 28 31 34 38 40 40 42 45 45 44 44 43 44 44 45 44 42 43 44 45 45 46 47 47 45 44 44 44
11 9 7 6 5 6 7 7 7 7 8 11 12 12 14 18 24 28 32 36 38 38 40 44 45 46 46 46 46 46 46 47 46 45 44 44 45 45 45 46 44 45 46 44
12 11 9 8 7 6 6 7 7 6 6 8 9 10 11 14 19 24 28 32 36 37 38 42 44 46 46 47 46 45 46 47 46 47 46 46 47 47 47 46 46 46 45 44
13 12 11 10 9 7 6 5 5 5 5 4 6 7 9 12 16 20 23 26 31 35 37 38 41 43 45 46 46 46 46 46 46 46 47 47 47 46 46 47 47 47 45 44
12 12 11 10 8 6 5 4 4 3 4 4 5 6 8 10 13 16 20 24 27 30 34 37 39 41 43 44 45 45 45 45 46 47 47 47 47 46 47 48 48 47 47 47
9 10 10 9 7 6 5 4 3 2 2 4 5 6 9 10 12 14 17 21 24 27 29 33 36 38 41 42 43 44 45 46 46 46 47 48 47 47 48 49 48 48 48 48
6 7 7 7 6 6 4 3 2 0 0 2 4 6 9 10 12 14 16 20 23 26 28 30 32 35 38 41 43 45 47 48 48 47 47 48 47 47 48 49 50 50 50 49
3 4 4 4 4 5 4 3 2 2 2 3 4 6 9 11 13 15 17 20 23 25 28 30 31 33 36 39 41 44 45 47 48 48 49 49 49 49 49 49 50 51 50 50
1 2 2 3 3 4 3 3 4 4 5 6 7 9 10 13 15 17 19 20 23 25 28 30 31 34 36 38 40 43 44 45 47 48 49 49 49 50 50 49 49 50 50 50
3 3 4 4 5 5 5 6 6 7 8 8 9 11 12 14 15 18 21 22 23 25 27 30 31 33 35 38 40 42 43 44 45 47 47 47 48 48 48 48 48 49 49 49
4 5 5 6 6 7 7 8 9 9 10 11 12 13 14 16 18 19 22 24 26 27 28 30 32 34 35 37 39 40 42 43 44 45 46 46 46 47 48 48 48 48 48 47
4 5 6 7 8 8 9 10 11 11 12 14 15 16 17 18 19 20 22 24 25 27 29 31 33 34 35 36 37 39 39 41 42 43 44 45 45 46 47 47 47 47 47 46
5 6 7 8 9 9 10 12 13 13 14 16 17 18 20 20 21 22 23 25 26 28 30 32 34 34 35 35 36 37 38 39 41 42 43 44 44 44 44 45 45 45 45 46
6 6 8 9 10 11 12 14 15 16 16 18 19 21 22 23 24 24 25 26 27 29 31 32 33 34 34 35 35 36 36 38 39 40 41 41 42 41 41 42 43 43 43 43
6 7 8 10 12 12 15 16 17 18 20 21 22 23 24 25 26 26 27 27 28 29 30 31 31 32 33 34 34 34 35 36 37 37 38 39 39 39 39 40 40 41 41 41
7 8 9 11 12 14 16 18 19 20 22 23 24 25 26 27 28 28 29 29 28 28 29 29 30 32 32 32 33 33 32 33 34 35 36 37 37 37 38 38 38 39 40 40
9 10 11 12 13 15 17 18 20 21 23 24 25 26 27 29 29 30 31 30 30 29 29 30 31 31 32 32 32 32 32 31 32 33 34 34 35 35 36 37 37 37 37 38
11 12 13 14 15 17 19 20 22 23 24 25 26 28 29 30 30 31 31 32 31 30 31 31 31 32 32 32 31 32 32 32 32 32 33 33 34 35 35 36 36 37 37 37
13 14 15 17 18 20 21 23 24 25 26 27 28 30 30 31 32 32 32 32 32 32 32 31 31 31 30 31 31 31 31 31 32 32 32 33 34 33 34 35 36 36 36 36
16 17 18 19 21 22 23 25 26 28 29 30 30 32 33 33 33 33 33 33 33 33 33 32 31 31 30 30 31 31 31 31 31 32 32 33 33 34 34 35 35 36 36 36

GEFSCGP_500_meanwind_120.txt.gz
Wind_Speed
7 5 5 5 4 4 6 7 9 12 15 19 20 21 24 27 32 36 38 41 45 47 49 51 51 50 48 50 51 49 50 49 49 48 47 46 46 45 44 43 42 41 40 40
5 4 4 3 2 1 4 4 7 11 14 16 18 20 22 25 29 34 36 39 42 45 46 47 48 48 47 48 48 47 47 47 48 47 47 47 46 45 45 44 44 44 43 42
6 5 4 3 1 1 3 5 8 12 13 14 16 18 19 22 26 31 33 36 39 43 44 45 46 47 46 46 45 44 44 44 45 44 46 47 47 45 46 46 46 45 44 44
5 5 5 4 3 3 5 7 9 10 11 13 15 15 17 20 24 28 31 33 37 39 43 43 43 45 45 44 44 44 41 41 44 45 43 42 44 44 45 45 45 46 46 46
6 5 5 6 5 6 7 8 9 10 11 12 12 13 15 19 21 25 29 31 33 35 39 42 44 44 45 44 41 43 40 40 43 46 44 42 43 43 44 47 48 48 48 47
5 5 6 7 8 8 9 9 9 10 11 11 11 11 13 16 19 22 25 28 30 32 34 37 39 41 42 42 39 39 39 38 42 45 45 44 45 44 44 46 48 49 49 50
6 6 6 7 8 9 10 10 10 10 10 10 9 9 9 11 14 18 22 25 26 28 29 32 34 36 39 40 40 38 37 37 39 42 45 45 45 45 44 45 47 50 51 51
7 7 8 9 9 9 9 8 9 10 10 11 9 8 8 8 10 13 17 21 22 24 25 29 32 34 37 38 39 40 37 36 37 40 42 44 45 44 45 47 48 49 50 51
8 8 8 9 10 9 9 9 9 9 10 10 8 8 8 9 9 10 14 18 20 21 22 25 28 31 33 34 35 37 38 39 39 39 40 43 45 45 44 46 47 49 51 51
9 9 9 10 10 10 9 9 9 9 10 10 9 7 7 8 8 8 10 15 18 21 22 24 27 29 31 33 34 35 37 39 40 40 42 44 45 45 44 44 45 46 47 49
10 9 9 9 9 9 9 8 7 7 8 9 8 6 5 6 7 8 10 14 17 18 21 23 24 27 29 32 34 35 36 37 39 40 41 43 44 45 45 44 44 46 46 46
9 9 9 10 10 10 9 8 7 7 7 7 6 5 5 6 7 8 10 13 16 17 20 22 23 24 28 30 33 35 37 37 39 40 42 43 43 44 44 44 44 44 45 45
9 9 9 9 9 9 8 7 7 7 6 5 4 4 4 5 6 7 9 12 15 17 20 22 23 24 26 28 32 34 36 37 39 41 41 41 42 44 44 44 44 44 44 44
9 8 7 7 7 7 7 7 7 6 6 5 3 3 2 3 5 7 9 11 14 17 20 22 25 26 27 28 30 32 35 38 39 41 42 42 43 43 44 44 44 45 44 45
7 7 6 5 5 5 5 5 6 5 5 3 2 0 1 2 4 6 8 11 13 16 18 21 23 26 28 30 31 33 35 37 39 41 42 43 43 44 44 44 44 45 44 44
6 6 5 5 4 4 3 3 3 3 3 2 1 1 3 5 6 8 9 11 13 15 18 21 23 26 28 30 32 34 35 37 37 39 40 41 42 42 42 43 44 45 45 45
5 5 5 5 5 4 3 2 1 1 1 1 2 3 5 6 8 9 11 12 14 17 19 21 23 25 28 29 31 33 34 36 37 38 39 40 40 41 41 42 43 44 44 45
5 5 5 4 4 3 3 2 1 1 2 3 4 6 7 8 10 11 13 15 17 19 21 23 24 26 28 30 31 33 35 36 37 37 38 39 40 41 41 41 41 41 42 43
4 3 3 2 2 1 2 2 2 3 4 6 7 8 9 11 12 14 15 17 19 21 23 25 26 28 30 31 32 33 35 36 37 37 37 38 38 39 39 39 39 40 40 41
3 3 2 1 1 2 3 4 6 7 8 9 11 12 13 14 15 17 18 20 21 23 24 27 29 31 32 33 34 35 35 36 36 37 38 38 38 38 38 38 39 39 40 40
2 2 2 2 3 4 5 6 7 9 10 12 13 14 15 16 17 19 21 22 23 25 26 28 30 32 33 34 35 36 36 36 37 37 38 38 38 37 37 38 38 38 38 39
1 2 3 4 5 6 7 8 9 10 11 13 14 15 16 18 19 21 23 24 25 26 28 29 31 32 33 34 35 36 36 36 37 38 38 38 37 37 36 36 36 36 36 37
3 4 5 6 6 7 9 9 10 12 13 14 16 17 18 20 21 23 24 26 27 28 29 30 31 32 32 33 34 35 36 36 37 37 38 38 37 37 36 36 35 35 35 35
5 6 6 7 8 9 10 11 12 13 15 16 18 20 21 22 24 25 27 28 30 31 32 32 32 32 33 34 35 36 36 37 38 38 38 38 37 37 36 36 36 35 35 35
7 7 8 9 11 12 12 13 15 16 17 19 21 23 24 26 27 28 29 30 32 33 33 33 33 34 34 35 35 36 36 37 38 39 38 38 38 37 37 36 36 35 35 34
9 10 11 11 13 14 14 16 17 18 20 22 24 25 27 29 31 31 32 33 34 34 34 34 34 34 34 34 33 33 34 35 36 37 36 36 38 37 36 36 36 35 35 35

GEFSCGP_500_meanwind_126.txt.gz
Wind_Speed
8 8 8 8 9 9 10 9 7 7 8 9 9 11 11 13 17 20 22 25 27 29 33 36 40 44 49 50 51 55 53 51 52 52 50 50 49 48 48 48 46 45 42 42
6 6 6 6 6 7 8 7 6 4 5 6 7 7 7 9 14 17 19 21 23 25 29 34 38 42 46 49 50 53 52 51 52 51 49 50 49 47 47 47 46 44 43 43
4 4 5 5 5 6 5 4 3 3 4 4 4 4 5 7 10 12 14 17 20 23 27 30 35 40 43 45 47 49 52 51 50 48 46 46 46 46 45 46 46 45 44 44
2 3 3 3 3 4 2 3 1 1 1 1 1 1 4 7 8 10 11 14 16 20 22 28 32 35 39 41 43 45 46 47 48 48 45 43 45 45 45 45 45 45 44 45
1 2 2 1 1 1 1 2 2 2 2 2 2 1 4 7 8 8 9 12 14 17 18 23 28 32 34 37 39 38 39 42 44 45 43 41 43 44 44 45 45 46 45 45
0 1 1 1 2 2 3 3 4 4 3 3 3 4 6 6 6 7 9 12 12 14 16 19 24 29 31 34 35 35 36 38 40 42 41 40 41 43 42 44 43 43 45 45
1 2 2 3 3 3 4 5 5 5 4 4 4 4 5 5 5 6 7 10 12 13 14 16 20 24 26 29 30 31 32 34 37 38 38 38 38 41 42 44 45 45 46 46
2 2 2 3 3 4 4 4 6 5 4 5 4 5 4 4 4 5 6 7 9 10 11 13 17 22 24 25 26 25 26 29 33 35 35 36 36 39 42 43 46 46 46 46
2 2 2 2 3 3 4 4 5 5 5 5 5 5 5 5 5 6 5 5 8 9 9 11 13 17 19 20 22 24 24 26 30 32 32 34 35 36 38 41 43 43 44 45
3 3 3 3 3 4 5 4 4 5 4 5 6 6 5 5 4 4 4 5 5 7 7 8 9 12 15 16 17 19 22 24 25 27 27 28 31 33 34 35 38 40 41 43
5 5 5 4 4 4 4 4 4 4 4 4 4 4 4 4 4 4 5 4 4 4 4 6 7 10 12 14 16 17 18 21 22 24 26 27 28 30 32 33 35 38 40 40
6 6 6 6 5 4 4 4 3 3 3 3 3 4 4 3 3 4 4 3 3 2 4 6 8 9 10 12 14 16 18 20 21 23 25 26 29 31 32 33 35 38 41 42
7 7 7 7 6 6 5 4 3 3 3 2 2 3 3 2 2 2 2 2 2 2 4 6 8 9 9 11 13 15 17 20 22 23 25 27 28 30 31 32 34 36 39 41
7 8 7 7 7 6 6 4 3 2 2 2 2 1 1 1 1 1 1 1 2 3 4 4 7 8 9 10 13 14 16 19 22 24 26 28 28 30 32 33 34 35 35 37
7 7 8 8 8 7 7 6 5 4 3 2 3 2 2 1 1 1 1 2 2 4 6 7 8 10 11 12 14 16 18 21 22 24 27 28 30 30 31 32 33 34 34 34
7 7 7 7 8 7 7 6 6 5 4 3 3 3 3 2 1 2 3 4 4 5 7 8 10 12 13 15 17 19 21 23 24 25 27 28 29 31 33 34 34 33 34 35
5 5 5 6 6 6 6 5 5 5 5 4 4 4 4 3 3 3 4 5 6 8 9 11 13 15 16 17 19 21 22 23 25 26 28 29 30 32 33 33 33 34 35 35
4 3 3 4 3 3 4 4 4 4 4 5 5 5 5 5 5 6 7 8 9 11 12 14 16 17 19 20 21 22 24 25 27 29 30 31 32 33 33 33 33 34 35 36
4 3 2 2 1 2 1 2 3 3 3 4 5 6 6 7 7 8 9 10 12 13 15 16 18 20 21 23 24 25 27 29 30 31 33 34 36 36 36 36 35 36 36 37
3 3 2 1 1 1 0 1 2 3 4 5 6 7 8 9 10 11 12 13 15 16 18 19 21 23 24 25 27 28 30 32 33 34 35 36 38 37 37 37 37 38 38 38
3 2 1 1 1 2 2 3 4 5 6 7 8 10 11 12 13 15 15 16 17 19 20 22 24 25 26 28 29 31 33 34 35 36 37 38 38 38 38 38 38 39 39 39
4 3 2 2 2 3 4 5 6 7 8 9 11 12 13 14 15 17 17 18 19 20 22 23 25 28 30 31 32 34 35 36 37 38 39 40 39 39 40 40 40 41 41 41
5 4 4 4 4 5 6 7 8 9 10 12 13 14 15 16 17 18 19 20 21 22 24 26 28 31 33 34 36 38 38 38 38 39 39 39 39 40 40 41 41 42 42 41
9 8 7 7 7 8 8 9 10 11 12 14 15 16 17 18 19 20 22 23 24 25 27 29 31 33 35 37 38 39 39 39 39 39 39 39 39 40 40 40 41 41 41 41
12 12 11 10 10 11 11 12 13 14 15 16 17 18 19 20 21 23 24 25 27 28 29 31 33 35 37 38 38 39 39 39 39 39 39 39 39 39 39 39 40 40 40 40
14 14 13 13 13 14 14 14 15 17 17 18 19 20 21 22 23 25 26 27 29 30 32 34 35 37 38 38 38 39 39 39 38 38 38 38 38 38 38 38 39 39 39 39

GEFSCGP_500_meanwind_132.txt.gz
Wind_Speed
11 10 10 11 11 11 12 11 10 10 10 10 9 9 10 13 14 15 17 19 21 24 30 35 39 43 47 50 53 54 54 55 56 57 58 57 56 54 53 52 51 49 47 46
8 7 8 9 9 9 9 7 6 6 7 7 6 8 9 9 12 12 14 17 18 21 25 29 35 40 43 45 47 50 51 52 54 53 55 55 55 54 53 51 49 48 49 47
6 5 6 6 6 5 5 5 4 3 3 4 5 4 4 5 7 8 10 13 14 16 21 25 30 34 36 39 41 43 47 49 50 50 52 54 54 54 52 50 49 48 48 48
6 5 4 3 3 2 2 2 1 0 1 2 3 3 3 2 2 5 7 10 12 15 18 21 26 28 30 33 36 37 39 43 45 48 49 50 51 50 50 49 49 48 49 48
5 4 3 2 1 0 1 1 2 1 1 1 2 3 3 3 1 2 5 8 11 14 16 19 21 22 24 28 32 33 35 40 41 44 46 47 47 47 48 49 49 49 48 48
6 5 3 3 2 2 2 2 1 2 2 2 2 3 3 3 3 3 4 6 9 11 14 15 16 18 19 22 27 29 30 35 37 40 43 45 44 44 45 45 46 47 47 47
6 5 4 3 3 3 3 2 2 3 3 4 4 4 4 5 6 5 5 6 8 9 9 12 14 17 18 19 22 24 24 28 33 36 37 40 41 40 41 41 43 45 45 45
6 5 4 4 3 4 4 3 2 3 3 5 6 6 6 5 6 5 6 6 6 7 9 9 10 13 14 17 19 20 20 22 26 31 33 36 38 37 37 38 39 40 41 43
6 5 5 4 4 4 4 3 2 3 4 5 6 6 7 7 6 5 6 7 7 7 7 8 8 11 12 14 16 18 19 20 22 25 29 33 34 35 34 35 36 38 40 41
5 5 6 5 5 5 4 3 4 4 5 5 6 6 7 7 7 6 5 5 5 6 8 9 7 8 8 11 13 16 19 19 19 21 24 28 29 29 30 32 34 36 37 38
6 6 6 5 5 5 5 5 5 5 5 5 6 7 6 6 7 7 7 5 5 6 7 6 5 6 7 9 10 12 15 15 16 17 20 22 24 25 26 28 29 31 33 34
7 7 7 6 6 5 5 6 6 5 5 5 5 7 7 7 7 8 7 6 6 7 6 5 5 5 6 8 9 9 10 12 14 15 18 20 22 24 24 26 27 28 31 33
9 8 8 7 6 6 5 6 6 6 6 6 6 6 6 7 8 8 7 6 6 6 6 5 5 4 5 6 7 7 8 9 11 13 15 17 20 22 24 26 27 28 31 33
9 9 8 7 7 7 7 7 6 5 6 6 6 6 6 7 7 7 7 7 6 6 5 5 4 4 5 5 6 6 6 7 9 12 14 16 18 22 25 27 28 29 31 33
9 8 8 8 8 8 8 7 6 5 5 5 5 5 6 6 6 6 6 6 6 4 4 4 3 3 3 4 4 6 7 6 8 11 14 17 20 22 25 27 28 30 33 34
8 8 8 8 7 7 7 7 6 5 4 5 5 5 5 5 5 5 5 5 4 3 2 2 2 1 1 3 5 7 10 11 12 14 17 20 22 24 26 27 29 31 33 34
7 7 7 7 7 7 6 6 5 5 4 4 4 4 4 4 3 2 3 3 4 3 1 1 2 3 5 7 9 12 13 14 16 18 19 22 25 27 29 30 31 32 33 34
7 7 7 6 6 5 5 5 4 4 3 3 3 3 2 3 3 2 2 3 4 4 3 4 5 6 8 10 13 15 17 18 20 22 23 24 26 28 30 32 33 33 34 34
6 6 5 5 5 5 5 4 4 3 3 2 1 1 1 1 3 3 4 5 6 7 6 7 9 11 12 14 16 18 19 21 23 24 25 26 28 30 32 33 34 35 35 35
6 6 5 4 4 3 3 2 1 1 1 2 1 1 2 3 4 5 5 7 8 10 10 11 13 15 16 18 20 22 23 24 25 27 29 30 32 33 34 35 36 37 38 38
7 6 6 5 4 3 2 1 1 1 1 1 2 3 4 5 6 6 8 10 11 13 14 15 16 17 19 20 22 24 25 26 28 30 32 34 35 35 35 36 37 39 39 40
8 8 7 7 6 5 4 3 3 4 4 4 4 5 6 6 8 9 10 12 14 15 16 18 19 20 21 22 23 25 27 28 30 32 33 34 35 36 37 37 38 39 40 41
9 9 9 8 8 7 7 7 6 7 7 7 8 8 9 10 10 12 13 15 16 18 19 20 21 22 24 25 27 28 29 31 33 34 34 35 35 36 37 39 40 40 41 41
11 11 11 11 10 10 9 9 9 10 10 10 11 11 12 13 14 15 16 17 18 20 21 22 24 25 27 28 29 31 32 34 35 35 35 35 36 37 38 39 40 40 40 41
14 14 14 14 14 13 13 13 12 13 13 13 13 14 14 15 16 17 18 19 20 22 23 25 26 27 29 30 31 33 34 35 35 36 36 36 37 38 38 38 39 39 39 40
17 17 17 17 17 17 16 16 16 16 15 15 16 16 17 17 18 19 20 21 23 24 26 27 28 29 30 32 33 34 35 35 35 36 36 38 39 39 39 38 38 38 38 38